Location: Bailleul
(50.3375°N, 2.8513°E)
Time: 17:19:15
(UTC+00:00)

Genesis I - Pass Details

Date: 19 April 2021
Orbit: 483 x 537 km, 64.5° (Epoch: 06 May)

Event Time Altitude Azimuth Distance (km) Brightness Sun altitude
Rises 21:37:17 0° 313° (NW) 2,675 8.2 -21.9°
Reaches altitude 10° 21:39:37 10° 303° (WNW) 1,787 6.9 -22.2°
Maximum altitude 21:43:13 32° 240° (WSW) 927 4.4 -22.5°
Enters shadow 21:43:20 32° 236° (SW) 928 4.4 -22.5°
